Regional Weather Roundup
Issued by NWS Cleveland, OH

Home | Current Version | Previous Version | Text Only | Print | Product List | Glossary Off
Versions: 1 2 3 4 5 6 7 8 9 10 11 12 13 14 15 16 17 18 19 20 21 22 23 24 25 26 27 28 29 30 31 32 33 34 35 36 37 38 39 40 41 42 43 44 45 46 47 48 49 50

000
ASUS41 KCLE 271202
RWRCLE
OHIO REGIONAL WEATHER ROUNDUP
NATIONAL WEATHER SERVICE CLEVELAND, OH
700 AM EST THU NOV 27 2014

NOTE: "FAIR" INDICATES FEW OR NO CLOUDS BELOW 12,000 FEET WITH NO
SIGNIFICANT WEATHER AND/OR OBSTRUCTIONS TO VISIBILITY.

OHZ001>008-015>018-024>027-034-035-043-044-271300-
   NORTHWEST OHIO

CITY           SKY/WX    TMP DP  RH WIND       PRES   REMARKS
DEFIANCE       CLOUDY    29  22  75 NW9       30.17R WCI  20
FINDLAY        CLOUDY    30  25  81 NW10      30.13R WCI  21
TOLEDO EXPRESS CLOUDY    28  22  78 NW7       30.15R WCI  21
TOLEDO EXEC    CLOUDY    29  22  75 NW10      30.15R WCI  20
LIMA           CLOUDY    30  25  81 NW12      30.14R HAZE    WCI  20
$$

OHZ009>014-019>023-028>033-038-089-271300-
   NORTHEAST OHIO

CITY           SKY/WX    TMP DP  RH WIND       PRES   REMARKS
CLE-HOPKINS    LGT SNOW  32  30  93 NW10      30.09R WCI  24
CLE-LAKEFRONT  LGT SNOW  33  31  92 VRB5      30.05S FOG     WCI  29
CUY CO. ARPT   LGT SNOW  34  32  93 NW5       30.06  WCI  30
LORAIN-ELYRIA  FLURRIES  32  28  85 N12       30.09R WCI  23
ASHTABULA      CLOUDY    32  29  88 CALM      30.04R
AKRON-CANTON   LGT SNOW  32  29  88 NW5       30.03R FOG     WCI  27
WOOSTER        LGT SNOW  31  30  96 NW10      30.05R FOG     WCI  22
MANSFIELD      CLOUDY    29  27  92 NW10      30.07R WCI  20
YOUNGSTOWN     LGT SNOW  31  30  96 NW5       30.01R FOG     WCI  26
$$

OHZ042-051>053-060>062-070>072-077>081-271300-
  SOUTHWEST OHIO

CITY           SKY/WX    TMP DP  RH WIND       PRES   REMARKS
CINC-COVINGTON CLOUDY    29  21  72 NW8       30.17R WCI  21
CINC-LUNKEN    CLOUDY    30  24  78 NW8       30.20R WCI  22
HAMILTON       CLOUDY    30  24  78 NW10      30.19R WCI  21
DAYTON         CLOUDY    30  25  81 NW9       30.16R WCI  22
WRIGHT-PAT AFB NOT AVBL
DAYTON GENERAL CLOUDY    29  25  85 NW6       30.14R WCI  23
WILMINGTON     CLOUDY    28  24  85 NW9       30.13R FOG     WCI  19
$$

OHZ036-037-039>041-045>050-054>059-063>069-073>076-082>088-271300-
  CENTRAL AND SOUTHEAST OHIO

CITY           SKY/WX    TMP DP  RH WIND       PRES   REMARKS
COLUMBUS       CLOUDY    31  26  82 NW8       30.10R WCI  23
OSU AIRPORT    CLOUDY    31  26  82 NW9       30.10R WCI  23
BOLTON FIELD   NOT AVBL
RICKENBACK AFB NOT AVBL
NEWARK         CLOUDY    32  27  81 NW8       30.08R WCI  25
MARION         CLOUDY    30  26  85 NW8       30.11R FOG     WCI  22
LANCASTER      CLOUDY    31  27  85 NW6       30.10R WCI  25
ZANESVILLE     MOCLDY    28  23  81 NW5       30.08R WCI  23
NEW PHILLY     CLOUDY    31  27  85 CALM      30.07R
$$


USA.gov is the U.S. government's official web portal to all federal, state and local government web resources and services.